Location: Litvinovka
(48.6667°N, 34.3500°E)
Time: 00:58:31
(UTC+00:00)

Okean 1 Rocket - Pass Details

Date: 18 September 2020
Orbit: 606 x 635 km, 82.5° (Epoch: 23 October)

Event Time Altitude Azimuth Distance (km) Brightness Sun altitude
Exits shadow 18:14:10 69° 188° (S) 682 3.1 -23.6°
Maximum altitude 18:14:42 90° 120° (ESE) 643 3.0 -23.6°
Drops below altitude 10° 18:19:14 10° 10° (N) 2,034 6.0 -24.3°
Sets 18:21:30 0° 10° (N) 2,947 6.8 -24.6°
